[Iaude] MPEC G177: 2024 GQ4 [a=2.46,e=0.55,i=11.8,H=24.3]
    mpec at cfa.harvard.edu 
    mpec at cfa.harvard.edu
       
    Fri Apr 12 13:57:39 EDT 2024
    
    
  
M.P.E.C. 2024-G177                               Issued 2024 April 12, 17:56 UT
     The Minor Planet Electronic Circulars contain information on unusual
         minor planets, routine data on comets and natural satellites,
         and occasional editorial announcements.  They are published
    on behalf of Division F of the International Astronomical Union by the
          Minor Planet Center, Smithsonian Astrophysical Observatory,
                          Cambridge, MA 02138, U.S.A.
			  
             Prepared using the Tamkin Foundation Computer Network
                              MPC at CFA.HARVARD.EDU
            URL https://www.minorplanetcenter.net/    ISSN 1523-6714
                                    2024 GQ4                                    
Observations:
     K24G04Q  C2024 04 10.48293016 17 54.826+06 27 27.30         21.83GVEG177F52
     K24G04Q  C2024 04 10.49431616 17 56.901+06 28 00.28         22.00GVEG177F52
     K24G04Q  C2024 04 10.50561516 17 58.989+06 28 32.87         21.92GVEG177F52
     K24G04Q  C2024 04 10.51697016 18 01.061+06 29 05.71         21.64GVEG177F52
     K24G04Q*1C2024 04 11.45932716 21 04.608+07 13 01.34         21.43GVEG177G96
     K24G04Q 1C2024 04 11.46455116 21 05.555+07 13 15.71         21.80GVEG177G96
     K24G04Q 1C2024 04 11.46977716 21 06.448+07 13 30.72         21.86GVEG177G96
     K24G04Q 1C2024 04 11.47498016 21 07.358+07 13 44.40         22.17GVEG177G96
     K24G04Q KC2024 04 11.48743016 21 09.493+07 14 18.24         21.98GVEG177V06
     K24G04Q KC2024 04 11.48981516 21 09.896+07 14 24.58         21.82GVEG177V06
     K24G04Q KC2024 04 11.49219916 21 10.307+07 14 31.27         21.72GVEG177V06
     K24G04Q KC2024 04 12.32755216 23 47.908+07 51 47.52         23.79GVEG177V06
     K24G04Q KC2024 04 12.32934516 23 48.203+07 51 52.31         22.76GVEG177V06
     K24G04Q KC2024 04 12.33113516 23 48.484+07 51 57.06         22.40GVEG177V06
     K24G04Q KC2024 04 12.33292516 23 48.772+07 52 01.67         22.69GVEG177V06
     K24G04Q  C2024 04 12.47607816 24 11.888+07 58 15.10         21.7 GVEG177H01
     K24G04Q  C2024 04 12.47983516 24 12.490+07 58 24.75         22.0 GVEG177H01
     K24G04Q  C2024 04 12.48614216 24 13.510+07 58 41.13         21.7 GVEG177H01
Observer details:
F52 Pan-STARRS 2, Haleakala.  Observers J. Herman, T. Lowe, P. Minguez, A.
    Schultz, I. Smith.  Measurers K. Chambers, T. de Boer, J. Fairlamb, H.
    Gao, M. Huber, C.-C. Lin, E. Magnier, Y. Ramanjooloo, R. Wainscoat, R.
    Weryk.  1.8-m Ritchey-Chretien + CCD.
G96 Mt. Lemmon Survey.  Observer H. Groeller.  Measurers T. Beuden, V. F.
    Carvajal, D. Fay, J. B. Fazekas, D. C. Fuls, A. R. Gibbs, A. D. Grauer, H.
    Groeller, J. K. Hogan, R. A. Kowalski, S. M. Larson, G. J. Leonard, D.
    Rankin, R. L. Seaman, F. C. Shelly, K. W. Wierzchos.  1.5-m reflector +
    10K CCD.
H01 Magdalena Ridge Observatory, Socorro.  Observers W. H. Ryan, E. V. Ryan.
    Measurer W. H. Ryan.  2.4-m f/8.9 Ritchey-Chretien + CCD.
V06 Catalina Sky Survey-Kuiper.  Observers V. F. Carvajal, G. J. Leonard, D.
    Rankin.  Measurers T. Beuden, V. F. Carvajal, D. Fay, J. B. Fazekas, D. C.
    Fuls, A. R. Gibbs, A. D. Grauer, H. Groeller, J. K. Hogan, R. A. Kowalski,
    S. M. Larson, G. J. Leonard, D. Rankin, R. L. Seaman, F. C. Shelly, K. W.
    Wierzchos.  1.55-m reflector + 1K CCD.
Orbital elements:
2024 GQ4                                                 Earth MOID = 0.1042 AU
Epoch 2024 Mar. 31.0 TT = JDT 2460400.5                 MPC                     
M   1.79431              (2000.0)            P               Q                  
n   0.25602393     Peri.    1.40555     -0.99088362     +0.13281152             
a   2.4563053      Node   186.36118     -0.12550877     -0.97101404             
e   0.5512635      Incl.   11.76975     -0.04896130     -0.19872803             
P   3.85           H   24.31          G   0.15           U   8                  
Residuals in seconds of arc
240410 F52  0.1+  0.0     240411 G96  0.1+  0.7+    240412 V06  0.2+  0.0
240410 F52  0.2-  0.0     240411 G96  0.2+  0.1+    240412 V06  0.1-  0.0
240410 F52  0.1+  0.0     240411 V06  0.0   0.0     240412 V06  0.2-  0.1-
240410 F52  0.1+  0.0     240411 V06  0.1-  0.2-    240412 H01  0.1+  0.0
240411 G96  0.5-  0.1-    240411 V06  0.1-  0.0     240412 H01  0.0   0.0
240411 G96  0.2+  0.1-    240412 V06  0.2+  0.0     240412 H01  0.0   0.0
Ephemeris:
2024 GQ4                 a,e,i = 2.46, 0.55, 12                  q = 1.1022
Date    TT    R. A. (2000) Decl.     Delta      r    Elong.  Phase     V
2024 03 13    13 08 36.6 -25 12 55   0.1408  1.1103   143.5    32.2    21.6
...
2024 03 28    15 10 31.4 -07 54 56   0.1345  1.1033   139.1    36.3    21.6
...
2024 04 05    15 56 02.5 +01 27 41   0.1513  1.1118   134.6    39.9    22.0
...
2024 04 11    16 19 36.2 +06 52 08   0.1698  1.1237   132.4    41.2    22.3
2024 04 12    16 22 46.3 +07 37 42   0.1732  1.1261   132.2    41.3    22.4
2024 04 13    16 25 44.7 +08 20 59   0.1768  1.1286   132.0    41.3    22.4
...
2024 04 19    16 39 57.8 +11 56 13   0.1993  1.1462   131.5    41.0    22.7
...
2024 04 27    16 51 08.4 +15 04 17   0.2324  1.1758   132.4    39.2    23.1
...
2024 05 12    16 56 30.6 +17 16 44   0.3016  1.2474   136.8    33.6    23.6
A. U. Tomatic                (C) Copyright 2024 MPC           M.P.E.C. 2024-G177
    
    
More information about the Iaude
mailing list